Location: Agadir-Ikarkaouin
(31.1503°N, 9.0246°W)
Time: 03:47:31
(UTC+00:00)

SEDSat Delta rocket - Pass Details

Date: 18 September 2020
Orbit: 533 x 1000 km, 31.4° (Epoch: 23 October)

Event Time Altitude Azimuth Distance (km) Brightness Sun altitude
Rises 19:43:40 0° 279° (W) 3,265 8.7 -14.9°
Reaches altitude 10° 19:46:25 10° 272° (W) 2,250 7.3 -15.5°
Maximum altitude 19:51:19 40° 203° (SSW) 981 4.1 -16.5°
Enters shadow 19:53:53 22° 146° (SSE) 1,401 4.5 -17.1°
